Location: Los Gatos B&B
(42.6926°N, 77.0646°W)
Time: 01:16:22
(UTC-04:00)

Daily predictions for brighter satellites

Satellite Brightness Start Highest point End
(mag) Time Altitude Azimuth Time Altitude Azimuth Time Altitude Azimuth
H-2A R/B 4.4 00:12:13 22° N 00:12:13 22° N 00:14:01 10° N
Lacrosse 5 3.5 00:10:37 10° NW 00:13:24 31° NNW 00:13:24 31° NNW
CZ-2C R/B 3.8 00:13:05 10° N 00:16:47 41° NNW 00:16:47 41° NNW
CZ-4C R/B 3.3 00:26:51 41° N 00:26:51 41° N 00:31:21 10° NNE
ATLAS 5 CENTAUR R/B 3.2 00:27:09 10° NW 00:31:12 47° NNW 00:31:12 47° NNW
ADEOS Rocket 3.6 01:08:28 10° NNE 01:14:09 60° NNE 01:14:09 60° NNE
Cosmos 1943 Rocket 4.2 01:11:44 10° NW 01:13:38 20° NW 01:13:38 20° NW
Mayak 1.5 01:13:37 10° N 01:14:37 16° N 01:14:37 16° N
SL-16 R/B 4.3 01:49:33 20° E 01:51:44 25° ENE 01:56:38 10° N
Cosmos 2082 Rocket 4.5 01:53:11 14° E 01:53:11 14° E 01:55:03 10° ENE
Lacrosse 4 Rocket 4.5 01:53:39 10° NNE 01:55:41 13° NE 01:57:21 11° ENE
Gbstr 26 Del rocket 4.3 02:26:21 76° E 02:26:21 76° E 02:33:06 10° ENE
Cosmos 2369 4.5 02:20:57 10° NNW 02:26:19 46° ENE 02:26:19 46° ENE
Nadezhda 4 Rocket 4.5 02:20:26 10° N 02:26:25 51° ENE 02:26:27 51° E
Cosmos 1833 Rocket 3.9 02:32:35 34° E 02:32:35 34° E 02:36:51 10° NE
Resurs 1-4 Rocket 3.5 02:27:56 10° NNE 02:32:02 31° E 02:32:02 31° E
Lacrosse 5 rocket 3.8 02:45:56 18° ENE 02:45:56 18° ENE 02:47:13 10° ENE
Cosmos 909 Rocket 4.1 02:46:18 10° NNW 02:52:36 73° ENE 02:53:59 55° ESE
H-2A R/B 4.1 02:50:19 10° NNE 02:52:52 35° NE 02:52:52 35° NE
Meteor 1-23 Rocket 4.5 02:54:57 66° ENE 02:54:57 66° ENE 03:00:20 10° NNE
Cosmos 371 Rocket 4.2 02:57:26 47° NE 02:57:26 47° NE 03:01:06 10° NNE
Meteor 2-4 Rocket 4.1 03:01:30 54° NNW 03:01:30 54° NNW 03:05:49 10° N
Exosat Rocket 4.3 02:57:30 10° NNW 03:03:21 76° ENE 03:06:36 37° SE
CBERS-1 4.2 03:04:55 10° NNE 03:09:22 68° NNE 03:09:22 68° NNE
Cosmos 1025 Rocket 4.0 03:16:11 44° NE 03:16:11 44° NE 03:19:31 10° NNE
Cosmos 2034 Rocket 4.3 03:17:52 52° WNW 03:17:52 52° WNW 03:23:47 10° N
Cosmos 2278 3.8 03:13:57 10° NNW 03:18:44 62° NW 03:18:44 62° NW
USA 215 4.4 03:19:42 10° ENE 03:25:17 29° SE 03:26:55 26° SSE
IRS P6 4.5 03:20:43 10° NNE 03:25:59 88° ESE 03:25:59 88° ESE
Cosmos 1980 Rocket 2.9 03:21:37 10° NNW 03:27:06 52° ENE 03:32:35 10° SE
Cosmos 1570 Rocket 4.4 03:27:42 50° SE 03:28:15 53° ESE 03:33:25 10° NNE
CZ-2D R/B 2.0 03:24:28 10° NNE 03:29:54 82° WNW 03:30:01 82° W
Cosmos 1607 3.9 03:29:40 65° WSW 03:30:33 75° NW 03:37:05 10° NNE
Cosmos 1697 Rocket 2.5 03:24:51 10° NNW 03:30:34 87° WSW 03:31:11 72° SSE
Cosmos 1092 Rocket 3.8 03:25:45 10° NNW 03:31:58 74° W 03:32:43 66° SW
UNKNOWN OBJECT B 4.2 03:31:20 10° NNE 03:34:50 32° E 03:34:50 32° E
SL-16 R/B 2.5 03:34:38 60° WSW 03:34:53 61° WSW 03:41:06 10° NNW
Lacrosse 4 Rocket 2.4 03:30:36 10° NNW 03:33:35 42° NNW 03:33:35 42° NNW
Cosmos 2082 Rocket 2.0 03:35:02 74° WSW 03:35:24 78° WNW 03:41:04 10° NNE
Cosmos 304 Rocket 4.2 03:35:16 52° ESE 03:35:37 53° ESE 03:40:20 10° NNE
SL-16 R/B 4.5 03:32:19 10° N 03:36:52 24° NE 03:41:24 10° ESE
Cosmos 1867 3.4 03:31:45 10° NW 03:37:15 81° WSW 03:37:36 76° S
Cosmos 1340 Rocket 4.2 03:40:35 30° NNW 03:40:35 30° NNW 03:42:52 10° N
Spot 4 Rocket 3.9 03:33:55 10° NNE 03:39:07 81° ESE 03:39:40 70° SSE
MOZ.5/SAFIR/RUBIN 5/SL-8 3.7 03:40:15 75° NW 03:40:15 75° NW 03:44:41 10° NNW
Meteor 1-15 Rocket 4.4 03:36:35 10° NNW 03:42:20 55° W 03:42:20 55° W
ARIANE 5 R/B 2.5 03:37:38 10° NNE 03:42:54 85° E 03:43:38 67° S
SL-08 R/B 4.5 03:47:36 30° NW 03:47:36 30° NW 03:50:34 10° NNW
Iridium 4 Rocket 3.6 03:47:03 47° NW 03:47:03 47° NW 03:50:31 10° N
IRS-1C 4.2 03:42:00 10° N 03:47:15 57° WNW 03:47:36 56° W
BREEZE-M R/B 4.2 03:51:25 27° ESE 03:51:25 27° ESE 03:55:05 10° ENE
BREEZE-M DEB (TANK) 4.4 03:31:09 10° WNW 03:53:09 75° NNE 03:57:52 10° ESE
Cosmos 2322 Rocket 4.1 03:49:08 10° N 03:54:03 30° NE 03:58:56 10° ESE
Cosmos 1428 Rocket 4.5 03:48:21 10° N 03:54:35 81° E 03:58:27 24° SSE
Cosmos 1627 Rocket 4.5 03:51:58 10° NNW 03:58:17 67° W 04:00:25 42° SSW
ADEOS II 3.0 03:56:22 10° NNE 04:01:23 44° E 04:04:45 20° SSE
Cosmos 1726 Rocket 3.7 03:57:49 10° N 04:02:08 68° E 04:03:44 37° SSE
Okean 1-7 Rocket 3.4 04:03:00 71° SW 04:03:23 78° W 04:07:55 10° N
IRS-1D 3.9 04:00:11 10° N 04:05:06 47° WNW 04:05:48 44° W
Cosmos 1356 Rocket 3.1 04:05:50 81° W 04:05:53 81° W 04:09:57 10° N
CZ-2D R/B 3.4 04:03:36 10° NNE 04:07:41 83° ESE 04:08:19 62° S
ADEOS 3.5 04:02:39 10° NNE 04:07:54 83° ESE 04:09:55 39° S
Cosmos 1544 3.3 04:07:37 10° NNW 04:10:42 56° NW 04:10:42 56° NW
Resurs 1-4 Rocket 2.9 04:07:42 10° N 04:12:24 34° WNW 04:13:07 33° W
Cosmos 1833 Rocket 3.5 04:14:17 31° W 04:15:39 35° WNW 04:20:50 10° N
Cosmos 2058 Rocket 3.3 04:13:35 10° N 04:18:01 71° E 04:21:28 16° SSE
Helios 1A Rocket 3.1 04:14:22 10° N 04:18:27 55° WNW 04:18:54 52° W
Cosmos 1805 3.8 04:14:58 10° N 04:18:50 57° E 04:21:47 16° SSE
Cosmos 1634 Rocket 4.5 04:18:31 35° WSW 04:20:12 42° WNW 04:26:07 10° N
Cosmos 2180 Rocket 4.5 04:18:07 27° S 04:21:53 83° W 04:28:19 10° N
Lacrosse 5 rocket 2.3 04:21:36 33° WNW 04:22:35 38° NW 04:26:26 10° NE
Cosmos 44 4.3 04:17:45 10° NNW 04:22:51 53° NE 04:28:05 10° SE
Cosmos 1766 3.1 04:19:00 10° N 04:22:54 82° W 04:24:03 44° S
Cosmos 841 Rocket 4.1 04:25:09 18° S 04:28:49 53° ESE 04:33:52 10° NNE
Cosmos 1606 Rocket 3.7 04:25:17 10° NNW 04:29:26 48° W 04:30:10 43° SW
Cosmos 2360 4.3 04:25:04 10° NW 04:30:33 50° WSW 04:36:01 10° S
Cosmos 2228 2.9 04:30:44 10° NNW 04:35:00 69° W 04:37:29 24° S
Cosmos 2279 Rocket 4.2 04:32:48 29° SW 04:35:54 53° WNW 04:42:02 10° N
Cosmos 1626 Rocket 4.5 04:32:19 10° SSE 04:36:27 47° E 04:40:36 10° NNE
Cosmos 1892 Rocket 3.8 04:40:00 34° SW 04:41:34 50° WNW 04:45:53 10° N
Cosmos 44 Rocket 4.3 04:37:50 10° NNW 04:42:51 53° NE 04:47:55 10° SE
SJ 16-02 3.3 04:41:32 10° N 04:45:32 33° ENE 04:49:31 10° SE
CZ-4B R/B 4.2 04:46:06 10° NNE 04:50:10 41° E 04:54:00 10° S
Meteor 1-21 4.2 04:47:14 18° SSW 04:51:35 69° WNW 04:57:12 10° N
Cosmos 540 Rocket 4.3 04:47:42 10° S 04:52:37 49° ESE 04:57:34 10° NNE
COSMOS 2487 4.1 04:52:33 19° WNW 04:52:55 19° WNW 04:55:30 10° NNW
ATLAS 3B R/B 2.9 04:47:02 16° SSW 04:53:00 72° ESE 04:59:56 10° NE
NOSS 3-2 (A) 4.2 04:50:07 11° S 04:55:37 49° ESE 05:01:48 10° NE
Cosmos 1763 Rocket 3.6 04:53:31 21° SW 04:56:58 62° WNW 05:02:15 10° NNE
Timation 2 Rocket 3.8 04:52:47 18° SSW 04:57:22 80° WNW 05:03:23 10° NNE
Cosmos 1898 Rocket 4.2 04:59:02 10° NW 05:03:35 31° W 05:08:08 10° SSW
Cosmos 1733 3.2 05:00:18 10° N 05:04:12 87° E 05:08:03 10° S
Cosmos 2360 Rocket 3.3 05:03:10 10° NNW 05:08:37 48° ENE 05:14:02 10° SE
USA 215 3.3 05:02:08 10° NE 05:08:41 80° NW 05:14:17 15° WSW
CZ-2D R/B 4.1 05:06:56 10° NNW 05:09:04 12° WNW 05:11:12 10° W
UNKNOWN OBJECT B 4.4 05:06:20 10° NNW 05:09:05 19° WNW 05:10:18 16° W
Cosmos 1980 Rocket 3.2 05:06:25 10° NW 05:10:42 23° W 05:15:00 10° SSW
Okean O Rocket 2.9 05:08:17 10° NNE 05:12:26 41° E 05:16:33 10° S
USA 161 3.4 05:09:50 10° SE 05:12:39 35° ENE 05:15:26 10° N
ATLAS CENTAUR R/B 3.7 05:10:37 10° NNW 05:14:29 30° NE 05:18:32 10° ESE
Cosmos 1125 Rocket 4.1 05:11:19 10° NNW 05:16:37 62° ENE 05:21:50 10° SSE
Cosmos 1937 Rocket 4.1 05:12:27 10° NW 05:17:04 33° W 05:21:37 10° SSW
Cosmos 1470 2.7 05:14:56 10° N 05:18:57 83° W 05:22:55 10° S
Cosmos 2266 Rocket 4.2 05:14:01 10° NNW 05:19:49 49° W 05:25:41 10° SSW
Cosmos 2082 Rocket 4.2 05:17:28 10° WNW 05:20:28 14° NW 05:23:29 10° NNW
ARIANE 5 R/B 4.5 05:18:39 10° NNW 05:21:18 14° WNW 05:23:55 10° W
SL-16 R/B 2.2 05:15:48 10° NNW 05:21:22 57° WSW 05:26:53 10° S
Cosmos 1825 Rocket 4.5 05:22:05 10° S 05:26:16 51° E 05:30:28 10° NNE
DNEPR-1 R/B 3.5 05:29:47 10° SW 05:33:58 86° WNW 05:38:35 10° NNE
Cosmos 2322 Rocket 2.5 05:32:55 10° NW 05:38:15 43° WSW 05:43:30 10° S
Aureole 2 Rocket 2.6 05:35:11 10° NNW 05:39:04 86° ENE 05:42:42 10° SSE
ADEOS II 3.3 05:36:37 10° N 05:40:50 25° WNW 05:45:04 10° WSW
Cosmos 292 Rocket 4.3 05:36:40 10° SW 05:41:15 43° WNW 05:45:52 10° N
Cosmos 1707 2.8 05:38:18 10° SSW 05:42:07 60° W 05:45:59 10° N
Cosmos 836 Rocket 4.5 05:37:07 10° SSW 05:42:19 76° WNW 05:47:33 10° NNE
Cosmos 1833 4.4 05:36:41 10° SSW 05:42:30 86° ESE 05:48:19 10° NNE
Cosmos 1953 3.0 05:39:23 10° NNW 05:43:05 34° W 05:46:46 10° SSW
PAYLOAD B 4.4 05:37:31 10° NNE 05:43:10 88° ESE 05:48:47 10° SSW
USA 267 3.6 05:36:53 10° ESE 05:43:25 74° NE 05:49:57 10° NW
CZ-4B R/B 3.8 05:43:34 10° NNE 05:47:21 86° ESE 05:51:16 10° SSW
PSLV R/B 4.2 05:43:39 10° N 05:47:22 43° WNW 05:50:57 10° SW
PSLV R/B 4.4 05:44:34 10° N 05:48:20 32° WNW 05:52:02 10° SW
Cosmos 372 Rocket 4.0 05:44:57 10° NNW 05:50:08 64° WSW 05:55:14 10° S
Meteor 1-31 Rocket 2.7 05:46:57 10° N 05:50:51 81° WNW 05:54:42 10° SSW
Cosmos 1953 Rocket 4.1 05:46:28 10° S 05:50:54 68° E 05:55:21 10° NNE
USA 238 DEB 4.2 05:44:29 10° WSW 05:51:07 49° NW 05:57:54 10° NNE
USA 238 4.1 05:44:34 10° WSW 05:51:13 50° NW 05:58:00 10° NNE
